Back to catalog

CZ-4 DEB

AliveSSO
NORAD 26262·DEBRIS·🇨🇳 China

Launched Oct 14, 1999 from Taiyuan Satellite Launch Center

Loading…

Next Passes (next 24 hours)

TLE

FreshSource: Space-Track

Epoch: Sep 14, 2026, 12:38 UTC

1 26262U 99057EY  26257.52674947  .00006666  00000-0  79993-3 0  9998
2 26262  98.3393   1.4569 0036564 213.2342 208.3514 14.83902134401059

Track CZ-4 DEB in real time with AllMySat

Download on the App Store